Overview Statistics Trail Chart Weather Telemetry Raw packets
 

This is the latest recevied weather packets stored in our database for station/object M0HPP-13. If no packets are shown the sender has not sent any weather packets the latest 10 day(s).

<< 9 10 11 12 13 14 15 >>
Time Temp. Humidity Pressure Rain* Wind** Luminosity Snow
1788480486 10° C 98% 999.6 hPa 0 mm - 0 W/m² -
1788479886 10° C 97% 999.7 hPa 0 mm - 0 W/m² -
1788479286 10° C 96% 1000 hPa 0 mm - 0 W/m² -
1788478686 10.56° C 96% 1000.1 hPa 0 mm - 0 W/m² -
1788478086 11.11° C 96% 1000.4 hPa 0 mm - 0 W/m² -
1788477486 11.11° C 97% 1000.5 hPa 0 mm - 0 W/m² -
1788476886 11.11° C 96% 1000.6 hPa 0 mm - 0 W/m² -
1788476286 11.11° C 97% 1000.6 hPa 0 mm - 0 W/m² -
1788475686 11.11° C 96% 1000.5 hPa 0 mm - 0 W/m² -
1788475086 11.11° C 97% 1000.7 hPa 0 mm - 0 W/m² -
1788474486 11.67° C 96% 1000.7 hPa 0 mm - 0 W/m² -
1788473886 11.67° C 96% 1000.9 hPa 0 mm - 0 W/m² -
1788473286 11.67° C 96% 1000.9 hPa 0 mm - 0 W/m² -
1788472686 12.22° C 94% 1001.1 hPa 0 mm - 0 W/m² -
1788472086 12.22° C 94% 1001.2 hPa 0 mm - 0 W/m² -
1788471486 12.22° C 96% 1001.4 hPa 0 mm - 0 W/m² -
1788469686 11.67° C 93% 1001.6 hPa 0 mm - 0 W/m² -
1788469087 11.67° C 95% 1001.7 hPa 0 mm - 0 W/m² -
1788468486 11.11° C 96% 1001.7 hPa 0 mm - 0 W/m² -
1788467886 11.11° C 97% 1001.8 hPa 0 mm - 0 W/m² -
1788467286 11.11° C 97% 1001.9 hPa 0 mm - 0 W/m² -
1788466686 11.67° C 96% 1002 hPa 0 mm - 0 W/m² -
1788466086 11.67° C 97% 1002 hPa 0 mm - 0 W/m² -
1788465486 12.22° C 96% 1002.2 hPa 0.25 mm - 0 W/m² -
1788464886 12.78° C 95% 1002.3 hPa 0.25 mm - 0 W/m² -

* Rain latest hour (hover to see other rain measurements)
** Current wind speed in m/s (hover to see current wind gust speed)